Tracking 20626 objects as of 8-Apr-2020
HD Live streaming from Space Station
objects crossing your sky now

TITAN 34B AGENA D DEB

Track TITAN 34B AGENA D DEB now!


NORAD ID: 25588
Int'l Code: 1983-078E
Perigee: 257.3 km
Apogee: 38,286.5 km
Inclination: 63.1 °
Period: 681.1 minutes
Semi major axis: 25642 km
RCS: Unknown
Launch date: July 31, 1983
Source: United States (US)
Launch site: AIR FORCE WESTERN TEST RANGE (AFWTR)

Note: This is SATELLITE DEBRIS
aabbcc
Your satellite tracking list
Your tracking list is empty




NASA's NSSDC Master Catalog

Two Line Element Set (TLE):
1 25588U 83078E   20098.12632157 +.00001695 +00000-0 +16141-3 0  9997
2 25588 063.1175 056.7383 7415168 271.6083 013.2635 02.11423371007386
Source of the keplerian elements: AFSPC